Theta_e
292 291 291 292 291 291 289 289 287 282 282 286 287 289 290 291 294 295 294 298 302 302 302 302 303 304 304 304 304 303 304 304 304 306 307 308 308 309
293 291 291 291 291 291 290 289 288 288 285 287 287 289 291 294 294 294 293 300 300 301 301 301 302 303 302 303 302 302 302 301 302 303 304 304 306 307
294 292 293 292 292 292 290 290 289 288 287 290 289 290 289 290 291 291 292 290 290 299 301 301 301 300 301 302 302 301 300 300 301 302 303 304 305 305
294 293 293 295 291 292 290 290 290 289 289 288 289 288 289 290 290 289 291 293 290 296 300 299 299 299 300 300 301 301 299 299 300 301 302 303 303 305
295 294 294 293 292 293 291 290 290 291 289 289 289 288 289 289 289 289 288 288 291 297 297 298 298 298 299 299 299 299 298 298 299 300 301 301 302 303
295 295 294 293 293 293 292 291 291 290 289 288 289 288 288 289 288 287 286 286 287 290 293 295 297 298 298 297 297 297 298 299 300 299 299 299 300 302
295 295 295 296 300 298 294 292 291 289 290 288 288 286 286 286 286 285 282 284 283 284 284 285 286 287 288 293 293 296 298 299 298 299 298 298 299 300
294 294 295 299 300 303 304 304 295 291 289 289 289 287 287 285 282 284 286 280 279 283 282 282 285 285 287 286 294 297 298 297 297 297 297 298 299 299
295 295 295 295 298 296 300 304 305 305 300 291 289 289 286 286 285 285 285 285 285 282 283 285 283 283 286 289 295 297 297 296 296 296 297 297 298 298
296 296 295 295 295 295 294 294 295 297 299 300 292 292 291 289 289 289 286 284 287 288 287 283 278 279 284 286 294 296 296 296 295 296 296 297 298 297
299 297 296 295 298 301 295 292 292 293 298 302 302 300 300 300 293 286 284 284 284 279 281 281 277 278 281 283 286 293 294 295 295 295 295 296 297 297
298 299 301 298 301 301 297 294 290 291 290 290 292 298 301 300 303 289 287 282 280 279 282 281 279 280 278 281 282 284 285 292 293 294 294 295 296 293
297 297 298 302 303 303 302 296 295 294 292 290 290 289 289 290 291 294 289 287 283 282 285 285 281 279 279 277 281 282 282 283 283 285 291 293 294 294
297 298 298 302 302 303 303 303 303 301 291 289 289 288 288 287 287 288 288 287 287 287 286 285 282 281 278 274 276 281 282 283 282 283 283 289 291 292
301 302 303 303 303 303 303 303 303 299 295 289 288 289 289 290 287 286 287 286 285 286 288 284 284 281 280 277 278 279 282 282 281 282 283 283 283 284
301 301 303 303 303 300 300 300 299 299 297 292 290 291 288 287 287 286 285 283 283 284 286 286 284 282 280 279 278 278 279 279 280 281 282 282 283 284
298 295 296 295 296 296 296 296 296 297 298 294 292 288 288 288 287 285 284 283 282 282 282 283 283 283 282 280 278 279 279 280 280 281 282 281 281 281
297 294 293 293 294 295 294 294 294 296 296 294 292 290 289 288 287 284 283 282 282 281 281 281 281 281 281 283 285 280 279 280 280 281 281 279 279 281
295 294 292 293 292 293 294 293 291 293 295 294 292 291 290 289 289 285 284 282 282 281 281 281 281 280 279 279 282 288 280 281 280 281 280 280 279 284
293 292 292 293 293 293 293 293 292 291 291 293 293 292 291 290 287 286 284 283 282 281 280 280 280 280 280 279 280 282 287 279 280 279 280 280 282 288
290 290 291 292 293 293 293 293 291 290 291 291 292 292 291 290 288 287 285 287 285 282 281 280 282 288 282 283 281 280 281 287 283 280 280 276 278 278
289 290 292 292 292 292 292 293 292 291 291 290 291 291 291 290 289 286 285 285 285 283 283 282 282 283 282 281 279 279 279 282 286 288 287 284 277 272
289 290 290 291 293 293 293 292 292 293 292 291 291 291 290 288 288 287 285 285 285 283 281 280 280 282 282 282 280 278 278 279 279 279 280 286 287 286
Wind_Speed
9 8 8 6 6 6 4 5 5 3 4 3 3 4 4 4 7 5 6 10 13 12 15 15 15 16 15 17 16 14 16 17 19 20 22 23 24 26
7 7 7 5 6 5 6 5 4 6 6 5 5 5 5 4 7 5 5 12 10 12 15 15 15 15 15 16 14 12 13 17 18 19 21 22 25 26
9 8 12 7 7 6 5 5 6 6 9 7 5 5 5 5 6 4 5 5 5 12 15 16 14 13 16 16 15 10 13 17 18 20 22 23 25 27
13 11 13 8 9 8 5 8 8 7 8 14 5 4 6 6 5 5 4 4 4 9 15 13 10 15 14 14 15 14 12 16 19 20 23 23 26 27
13 13 14 11 12 9 9 8 7 7 8 8 9 4 5 3 3 3 4 4 3 11 12 10 12 15 14 14 14 14 12 15 19 20 22 23 26 26
12 13 13 13 14 12 10 11 9 8 6 8 8 6 4 4 2 3 3 2 3 3 6 7 12 15 14 13 12 14 14 18 19 21 21 23 26 26
12 12 13 16 23 19 9 10 10 9 8 8 8 3 3 3 4 2 2 1 4 3 2 3 3 5 6 10 11 12 14 15 17 19 20 22 25 24
14 13 13 21 22 28 28 27 15 12 12 8 9 8 9 5 3 3 2 1 3 1 1 4 1 4 5 4 10 11 12 15 16 18 20 22 23 22
14 14 12 11 19 14 22 27 26 27 23 11 12 11 6 7 6 4 5 4 4 3 2 5 1 4 4 5 8 11 11 13 15 16 18 21 22 21
15 15 14 14 13 13 12 13 14 15 14 13 13 11 10 7 9 7 6 4 2 5 4 4 2 3 4 4 8 10 13 13 13 15 19 19 21 20
13 13 14 15 19 23 13 13 13 13 16 24 18 18 18 17 12 6 4 4 2 3 3 2 2 3 2 4 5 10 13 10 11 14 18 19 20 19
11 12 22 19 24 24 16 12 12 13 9 7 5 14 18 14 19 10 6 4 2 2 3 3 2 1 4 2 4 3 5 8 11 13 16 17 18 8
9 9 9 22 26 27 25 13 14 10 12 8 7 6 5 5 5 9 8 5 4 4 5 4 3 1 2 3 3 3 2 4 4 6 14 16 17 16
11 9 9 18 23 24 20 24 25 19 6 6 6 7 7 6 5 5 7 6 5 6 6 6 3 4 2 2 3 4 3 2 2 4 4 11 15 18
9 13 18 19 21 19 23 22 21 10 8 7 8 8 7 6 5 4 4 4 4 5 5 6 4 4 3 4 3 3 4 3 3 2 4 4 4 4
12 10 13 15 16 14 12 13 9 8 9 9 8 6 4 4 5 5 4 4 3 3 6 7 7 6 3 4 3 3 3 3 3 2 1 3 4 5
9 4 5 4 6 7 7 8 7 7 9 7 7 7 6 6 5 4 4 4 5 4 3 3 5 6 4 4 3 4 3 2 2 2 1 2 4 4
8 6 7 6 7 8 8 7 7 11 8 7 8 8 8 8 7 4 4 5 6 5 4 4 4 2 1 4 11 3 2 2 1 2 0 1 2 4
7 6 6 7 7 7 8 7 8 8 8 8 9 9 8 7 9 7 7 5 6 5 5 4 4 4 4 4 1 7 3 2 1 1 0 1 2 2
4 5 6 6 7 8 7 7 7 6 8 8 9 9 9 9 7 8 8 8 7 5 4 4 4 5 6 6 4 2 5 2 2 1 1 0 2 2
4 4 5 6 7 7 7 7 8 8 9 9 9 9 9 9 9 9 9 15 12 7 7 7 8 12 4 4 3 2 2 4 5 4 2 2 1 0
5 5 5 6 7 7 7 6 7 8 8 9 9 9 9 9 10 10 9 9 9 8 7 4 5 5 4 4 4 4 3 1 3 4 4 4 4 3
5 5 5 5 6 7 7 7 8 8 9 9 9 9 9 9 9 9 9 9 8 7 5 5 4 3 4 4 6 4 6 4 3 1 2 3 6 9
Wind_Direction
231 221 213 215 207 206 190 176 175 265 270 251 231 224 232 265 269 267 254 255 275 304 316 314 306 307 310 317 320 324 324 319 319 315 313 320 315 312
229 225 232 222 221 211 203 199 193 212 254 196 226 225 248 272 268 273 249 250 269 301 313 315 310 313 315 306 308 315 315 321 321 319 318 316 317 311
228 221 237 215 227 223 205 201 210 198 245 264 228 218 236 243 272 265 250 234 261 294 312 314 304 314 312 302 308 303 311 316 318 318 319 318 316 312
224 225 232 225 230 232 211 222 220 210 223 256 255 238 225 235 231 258 246 225 247 286 310 310 310 312 306 303 309 305 308 313 319 315 318 318 317 315
226 218 230 219 232 227 217 220 220 225 223 242 264 237 250 248 262 240 235 261 248 283 305 289 307 315 305 306 305 312 303 310 319 318 318 320 317 323
229 228 226 221 229 229 223 223 221 220 220 233 251 258 234 245 222 230 270 230 278 270 291 277 307 309 303 309 315 304 297 298 314 316 321 321 320 328
235 230 231 229 233 231 226 223 215 215 225 229 244 228 227 217 213 220 209 248 278 240 281 282 288 290 288 301 303 300 296 315 322 322 320 322 322 332
233 233 235 241 242 246 245 238 208 217 221 219 233 232 238 207 192 195 191 118 309 208 255 282 252 297 284 280 293 308 311 329 330 329 330 328 330 339
231 232 232 230 236 237 246 250 248 232 224 213 229 224 213 194 173 203 215 205 217 275 47 293 253 281 290 294 316 324 333 333 339 334 334 337 339 344
235 234 233 237 226 224 230 231 238 242 241 230 213 224 212 186 188 189 187 195 231 257 204 261 278 261 309 289 318 338 337 330 339 339 341 349 346 351
240 232 231 236 239 235 230 231 234 234 244 243 234 221 225 217 194 130 171 186 254 254 206 171 273 279 283 291 298 332 337 338 344 346 345 352 354 355
244 237 232 230 238 242 238 230 224 229 223 226 239 248 236 225 216 194 165 177 174 339 222 157 288 8 333 282 295 319 325 340 343 349 354 355 6 356
249 248 233 234 237 239 237 235 238 220 227 215 220 222 206 200 213 184 189 163 173 216 197 153 181 256 191 295 300 296 332 321 325 331 351 355 16 13
252 254 249 238 236 238 240 240 244 235 190 200 206 218 213 208 211 193 183 194 189 200 179 164 185 184 192 304 262 319 309 310 332 330 338 356 6 8
256 254 249 238 240 241 242 245 248 234 207 187 209 219 212 197 172 175 188 207 202 216 194 173 175 173 185 215 255 276 314 317 343 327 346 356 347 338
280 270 255 247 233 235 237 245 239 232 220 201 209 210 153 162 183 175 175 167 184 223 211 190 186 160 196 234 200 265 234 282 328 312 344 340 355 352
270 256 265 242 230 228 224 228 228 228 224 189 195 184 188 185 192 166 170 151 185 181 191 201 190 178 185 183 245 234 259 274 264 279 150 350 342 345
272 259 254 231 231 228 224 224 220 220 217 186 194 194 194 191 191 163 160 173 190 193 178 177 148 125 90 261 211 243 248 239 257 317 237 113 351 330
262 261 253 245 235 229 226 213 215 211 202 199 192 198 195 194 196 191 188 184 196 185 188 159 162 149 162 199 272 218 205 236 209 217 277 138 145 1
253 253 257 254 246 236 229 222 218 200 203 207 208 198 196 191 194 199 192 192 192 179 174 164 180 183 182 192 185 227 200 202 200 209 207 231 232 94
280 264 254 255 258 249 238 226 215 208 205 207 211 206 200 191 198 204 196 194 186 181 193 199 204 196 125 102 100 154 263 280 202 182 170 117 183 347
287 290 292 270 262 254 253 238 220 217 215 206 207 206 203 194 201 198 194 193 193 190 197 167 150 139 160 159 166 152 171 262 0 90 120 167 165 201
298 294 288 282 277 268 257 251 241 226 215 210 204 200 194 195 198 196 192 197 185 174 159 155 147 145 177 171 163 149 159 170 183 222 343 42 106 113